Погода в Могилеве

Погода в Могилеве : погода сейчас, прогноз погоды и архив. Всё, что Вы хотите узнать о погоде в Могилеве!

Поиск расширенной информации на нашем сайте:

Другие новости

Новости СМИ2

Главная страница сайта

Новости сайта

03.07.2017

Напоминаем, что на нашем специализированном сайте Метеоцентр.Азия вы можете получить высокодетализированные автоматические прогнозы погоды по пунктам России, СНГ и мира в авиационном формате (включающие направление и скорость ветра, видимость, явления погоды, количество и форму облачности, нижнюю и верхнюю границу облачности).


Погода в Могилеве - сегодня

Время (UTC), дата Ветер
(°,м/с) 
Видим.   Явления Облачность Т
(°С)
Тd
(°С)
f(%) Тe
(°С)
Pmin
(гПа)
dP
(гПа)
Po
(мм)
O2
(г/м3)
Тmin Tmax R s Состояние
почвы
21 17.08.18 090 (В) 10 км    3/0 верхняя 
[Ci sp]
+18.1 +12.7 71 +24  1020.7  0.4  749  280           
00 18.08.18 090 (В) 10 км    3/0 верхняя 
[Ci sp]
+16.5 +13.3 81 +23  1020.9  749  282           
03 18.08.18 090 (В) 10 км    8/8 1260 м 
[Sc]
+15.7 +13.2 85 +22  1020.4  -0.5  748  282           
06 18.08.18 190 (Ю) 10 км    10/8 1260 м средняя 
[Sc|Ac As]
+17.6 +14.7 83 +26  1020.5  0.3  748  280  +15.6         
09 18.08.18 130 (ЮВ) 10 км    10/8 1470 м средняя 
[Sc|Ac As]
+19.6 +15.6 78 +30  1020.2  -0.1  748  278           
12 18.08.18 120 (ЮВ) 4{10}  10 км    9/6 800 м средняя 
[Sc|Ac trans]
+20.6 +17.2 81 +33  1019.6  -0.4  748  276           
15 18.08.18 150 (ЮВ) 10 км    9/3 1000 м средняя 
[Sc|Ac trans]
+21.7 +17.7 78 +36  1018.4  -1.1  747  275           
18 18.08.18 160 (Ю) 10 км    6/3 1000 м средняя 
[Sc|Ac trans]
+18.3 +15.6 84 +29  1019.4  0.6  748  279    +22.6       
21 18.08.18 170 (Ю) 10 км    6/0 средняя 
[Ac trans]
+17.5 +15.3 87 +27  1019.4  748  280           
00 19.08.18 190 (Ю) 10 км    4/0 средняя 
[Ac trans]
+16.2 +14.5 90 +26  1019.7  0.2  748  281           
03 19.08.18 140 (ЮВ) 0800 м  туман  4/0 средняя 
[Ac trans]
+13.7 +13.7 100 +21  1019.8  -0.1  748  284           
06 19.08.18 200 (Ю) 10 км  {туман}  8/0 средняя, верхняя 
[Ac trans|Ci sp]
+18.9 +16.2 84 +31  1019.8  0.4  748  278  +13.6         
09 19.08.18 180 (Ю) 12000 м    9/4 1000 м средняя, верхняя 
[Cu med, cong|Ac trans|Ci sp]
+20.5 +17 80 +33  1019.5  -0.1  748  277           
12 19.08.18 180 (Ю) 15000 м    8/6 1000 м кучево-дожд., средняя 
[Cb calv|Ac trans]
+25.1 +17.1 61 +38  1018  -1.2  747  272           
15 19.08.18 180 (Ю) 3{10}  14000 м  {гроза, ливн. осадки}  8/3 1000 м кучево-дожд., средняя, верхняя 
[Cb calv|Ac trans|Ci sp]
+20.5 +16.5 78 +32  1017.9  -0.4  747  276         
18 19.08.18 210 (ЮЗ) 12000 м  {гроза, ливн. осадки}  8/0 средняя, верхняя 
[Ac trans|Ci sp]
+18.1 +15.6 85 +28  1018.1  -0.1  747  279    +25.4     
21 19.08.18 280 (З) 3200 м  дымка  6/0 верхняя 
[Ci sp]
+14.9 +14.2 96 +23  1018.4  0.1  747  282           
00 20.08.18 270 (З) 0900 м  туман  6/0 верхняя 
[Ci sp]
+13.1 +13.1 100 +20  1018.4  -0.1  747  284           
03 20.08.18 260 (З) 3500 м  туман поземный  8/0 средняя, верхняя 
[Ac trans|Ci sp]
+12.9 +12.5 97 +19  1018.2  -0.2  746  285           
06 20.08.18 тихо ()   7000 м  дымка{туман}  9/0 средняя 
[Ac trans]
+17.5 +15.9 90 +28  1017.6  -0.3  746  279  +12.6         
09 20.08.18 190 (Ю) 12000 м    9/0 верхняя 
[Ci sp]
+21.7 +16.6 73 +33  1016.5  -0.7  746  275           
12 20.08.18 210 (ЮЗ) 14000 м    9/3 1000 м верхняя 
[Cu hum|Ci sp]
+24.7 +13.8 51 +32  1015.1  -1.2  745  272           
15 20.08.18 180 (Ю) 14000 м    9/4 1000 м средняя 
[Cu med, cong|Ac trans]
+24.7 +15.9 58 +35  1013.1  -1.9  743  271           
18 20.08.18 160 (Ю) 10 км    9/0 средняя 
[Ac trans]
+21.6 +17.4 77 +35  1011.7  -1.6  742  273    +25.5       
21 20.08.18 190 (Ю) 10 км    9/0 средняя 
[Ac trans]
+17.7 +15 84 +27  1011.1  -0.9  742  277           
Время (UTC), дата Ветер
(°,м/с) 
Видим.   Явления Облачность Т
(°С)
Тd
(°С)
f(%) Тe
(°С)
Pmin
(гПа)
dP
(гПа)
Po
(мм)
O2
(г/м3)
Тmin Tmax R s Состояние
почвы

Для получения пояснительной информации подведите курсор к названию столбца.

ПОГОДА в Могилеве - архив

Всё, что Вы хотите узнать о погоде в Могилеве - удобно и подробно!

Выберите нужную дату (начиная с 1 января 2015* года) и нажмите кнопку "Найти".
Будут отображены архивные сводки погоды по пункту Могилев, начиная с указанной даты.


Отображать данные в формате CSV (для использования в таблицах Excel)


Внимание! Наш архив погоды предназначен исключительно для личного некоммерческого использования в познавательных целях. Если Вам необходимы официальные справки о состоянии погоды (для производственных, юридических, коммерческих и т.п. целей), обращайтесь в органы Росгидромета.

*Примечание: данная дата относится к архиву по метеостанциям СССР (Россия, СНГ, Балтия).
Архив по метеостанциям Зарубежной Европы и Азии (кроме Китая) хранится 10 дней, по другим регионам земного шара (Китай, Африка, Америка, Австралия, Океания) - 1 день.

Могилев - район местоположения метеостанции


Название, широта, долгота, высота метеостанции:
Могилев 53.9°ш. 30.1°д. 192 м над ур. моря [Беларусь]

Дополнительная информация

В oтличие oт бoльшинства пoгoдных сайтoв мы публикуем пoдрoбную метеoинфoрмацию в детальнoм прoфессиoнальнoм фoрмате.

Характеристики температуры и влажнoсти вoздуха измеряются на высoте 2 м в тени вдали oт зданий и деревьев.
Скoрoсть ветра измеряется на высoте 10 м (на урoвне рoста челoвека скoрoсть ветра ниже в 1.5-2 раза). Если метеoстанция нахoдится в гoрoде или в лесу, тo скoрoсть ветра занижена на 2-4 м/с пo сравнению с oткрытым местoм. Скoрoсть ветра над акватoриями крупных рек и oзёр, а также на вершинах хoлмoв на 2-5 м/с выше, чем в oбычных услoвиях.
Атмoсфернoе давление в разных тoчках местнoсти мoжет значительнo oтличаться oт давления на метеoстанции, в зависимoсти oт услoвий рельефа (при пoдъёме на 10 м давление пoнижается примернo на 1 мм рт.ст.).